Regional Weather Roundup
Issued by NWS

Home | Current Version | Previous Version | Text Only | Print | Product List | Glossary Off
Versions: 1 2 3 4 5 6 7 8 9 10 11 12 13 14 15 16 17 18 19 20 21 22 23 24 25 26 27 28 29 30 31 32 33 34 35 36 37 38 39 40 41 42 43 44 45 46 47 48 49 50

707
ASUS44 KLIX 020110
RWRLA
LOUISIANA WEATHER ROUNDUP
NATIONAL WEATHER SERVICE NEW ORLEANS LA
800 PM CDT MON SEP 01 2014

NOTE: "FAIR" INDICATES FEW OR NO CLOUDS BELOW 12,000 FEET WITH NO
      SIGNIFICANT WEATHER AND/OR OBSTRUCTIONS TO VISIBILITY.
      SKY/WX - SKY CONDITION AND SIGNIFICANT WEATHER.
      TMP - AIR TEMPERATURE.    DP   - DEWPOINT TEMPERATURE.
      RH  - RELATIVE HUMIDITY.  PRES - PRESSURE.
      HX  - HEAT INDEX.         WCI  - WIND CHILL INDEX.

*  THESE STATIONS ARE NOT NWS OR FAA STATIONS AND ARE NOT UNDER
   NWS QUALITY CONTROL.

LAZ040-048-061>063-065-066-069-020200-
SOUTHEAST LOUISIANA

CITY           SKY/WX    TMP DP  RH WIND       PRES   REMARKS
N.O. AUDUBON     N/A     82  79  92 MISG        N/A
N.O. INTL ARPT LGT RAIN  81  75  82 CALM      30.02R
N.O. LAKEFRONT CLOUDY    81  76  84 SE6       30.04R
N.O. DOWNTOWN* FAIR      82  73  74 E5        30.04R
SLIDELL        CLOUDY    78  75  90 CALM      30.03R
BATON ROUGE    CLOUDY    79  74  84 E9        30.01R
BOOTHVILLE     MOCLDY    82  76  81 SE7       30.03R
BELLE CHASSE   CLOUDY    81  76  84 MISG      30.03R
BOGALUSA*        N/A     79  74  86 CALM      30.05S
GALLIANO*      NOT AVBL
NEW ROADS*     FAIR      80  77  92 E3        30.00F
GONZALES*      MOCLDY    81  80  98 NE3       30.01R
HAMMOND*       CLOUDY    81  73  78 E3        30.05R
HOUMA*         MOCLDY    82  73  73 S3        30.01R
PORT FOURCHON* CLOUDY    84  75  74 S9        30.03R

$$

LAZ041-044-053-054-020200-
SOUTHWEST LOUISIANA

CITY           SKY/WX    TMP DP  RH WIND       PRES   REMARKS
LAKE CHARLES   PTCLDY    81  77  88 S5        29.96R FOG
LAFAYETTE      MOCLDY    83  77  82 CALM      30.00R
PATTERSON        N/A     81  77  89 S5        30.03R
SALT POINT       N/A     86  78  77 VRB3      29.99R HX  98
NEW IBERIA     RAIN      81  76  84 S8        30.01R
CHENAULT AIRPK PTCLDY    82  77  83 S6        29.97R

$$

LAZ027-028-020200-
CENTRAL LOUISIANA

CITY           SKY/WX    TMP DP  RH WIND       PRES   REMARKS
FORT POLK      MOCLDY    79  76  90 SE7       29.97R
ALEXANDRIA INT MOCLDY    80  74  81 S5        29.96S
ALEXANDRIA     CLOUDY    79  75  87 SE6       29.98S

$$

LAZ001-002-020200-
NORTHWEST LOUISIANA

CITY           SKY/WX    TMP DP  RH WIND       PRES   REMARKS
SHREVEPORT     PTCLDY    85  74  69 SE8       29.92R
BARKSDALE AFB  MOCLDY    80  75  83 SE8       29.94R
DTN SHREVEPORT PTCLDY    84  74  71 SE13      29.93R

$$

LAZ014-016-020200-
NORTHEAST LOUISIANA

CITY           SKY/WX    TMP DP  RH WIND       PRES   REMARKS
MONROE         PTCLDY    82  73  74 S5        29.97S
TALLULAH       MOCLDY    80  72  76 SE8       29.99S

$$




USA.gov is the U.S. government's official web portal to all federal, state and local government web resources and services.